UAL2332 KSFO-KAUS

Flight info

Callsign UAL2332
Flight time N/A
Altitude 39000
Route WESLA5 KAYEX LOSHN BOILE Q4 DILLO LAIKS4
Aircraft A21N/M-SDE2E3FGHIRWXY/LB1

Departure

Time 2026-05-03 22:24
Airport San Francisco International Airport (KSFO)

Arrival

Time N/A
Airport Austin Bergstrom International Airport (KAUS)
Time Latitude Longitude Altitude Speed Heading
2026-05-03 21:51 37.61919 -122.38356 23 ft 0 kts 291°
2026-05-03 22:06 37.61916 -122.38347 23 ft 3 kts 278°
2026-05-03 22:07 37.61920 -122.38325 24 ft 3 kts 216°
2026-05-03 22:07 37.61925 -122.38321 28 ft 0 kts 200°
2026-05-03 22:10 37.61923 -122.38322 26 ft 1 kts 201°
2026-05-03 22:10 37.61920 -122.38320 25 ft 0 kts 163°
2026-05-03 22:10 37.61917 -122.38298 27 ft 5 kts 69°
2026-05-03 22:10 37.61938 -122.38275 24 ft 3 kts 40°
2026-05-03 22:11 37.61943 -122.38264 26 ft 1 kts 70°
2026-05-03 22:11 37.61935 -122.38143 25 ft 26 kts 113°
2026-05-03 22:11 37.61857 -122.37945 25 ft 25 kts 117°
2026-05-03 22:11 37.61791 -122.37737 20 ft 25 kts 110°
2026-05-03 22:12 37.61728 -122.37540 22 ft 24 kts 116°
2026-05-03 22:12 37.61657 -122.37362 28 ft 22 kts 117°
2026-05-03 22:12 37.61590 -122.37201 26 ft 20 kts 117°
2026-05-03 22:12 37.61523 -122.37043 26 ft 20 kts 118°
2026-05-03 22:13 37.61447 -122.36902 25 ft 20 kts 128°
2026-05-03 22:13 37.61359 -122.36761 21 ft 20 kts 123°
2026-05-03 22:13 37.61290 -122.36606 20 ft 21 kts 117°
2026-05-03 22:13 37.61250 -122.36503 17 ft 0 kts 117°
2026-05-03 22:14 37.61248 -122.36499 17 ft 0 kts 117°
2026-05-03 22:15 37.61232 -122.36460 20 ft 11 kts 118°
2026-05-03 22:15 37.61223 -122.36439 19 ft 0 kts 118°
2026-05-03 22:16 37.61217 -122.36425 19 ft 12 kts 118°
2026-05-03 22:16 37.61156 -122.36284 21 ft 8 kts 118°
2026-05-03 22:16 37.61155 -122.36281 20 ft 0 kts 118°
2026-05-03 22:17 37.61139 -122.36242 20 ft 11 kts 118°
2026-05-03 22:17 37.61121 -122.36197 20 ft 0 kts 117°
2026-05-03 22:18 37.61117 -122.36189 20 ft 4 kts 117°
2026-05-03 22:19 37.61110 -122.36171 20 ft 0 kts 117°
2026-05-03 22:19 37.61103 -122.36154 22 ft 10 kts 117°
2026-05-03 22:19 37.61092 -122.36125 21 ft 0 kts 117°
2026-05-03 22:21 37.61067 -122.36063 22 ft 0 kts 114°
2026-05-03 22:22 37.61058 -122.36012 22 ft 10 kts 94°
2026-05-03 22:22 37.61058 -122.35995 22 ft 0 kts 86°
2026-05-03 22:23 37.61059 -122.35990 22 ft 3 kts 86°
2026-05-03 22:23 37.61111 -122.35907 21 ft 22 kts 26°
2026-05-03 22:23 37.61315 -122.36082 18 ft 67 kts 313°
2026-05-03 22:23 37.61628 -122.36823 27 ft 126 kts 296°
2026-05-03 22:24 37.62162 -122.37962 156 ft 168 kts 301°
2026-05-03 22:24 37.62887 -122.39195 644 ft 176 kts 293°
2026-05-03 22:24 37.63404 -122.40584 1327 ft 177 kts 292°
2026-05-03 22:24 37.63934 -122.42034 1873 ft 194 kts 292°
2026-05-03 22:25 37.64580 -122.43676 2188 ft 221 kts 295°
2026-05-03 22:25 37.65336 -122.45474 2668 ft 239 kts 296°
2026-05-03 22:25 37.66136 -122.47314 3421 ft 244 kts 295°
2026-05-03 22:25 37.66774 -122.49330 4110 ft 251 kts 277°
2026-05-03 22:26 37.66679 -122.51547 4653 ft 258 kts 247°
2026-05-03 22:26 37.65693 -122.53405 5294 ft 260 kts 217°
2026-05-03 22:26 37.64083 -122.54384 6103 ft 259 kts 188°
2026-05-03 22:26 37.62291 -122.54234 6865 ft 261 kts 163°
2026-05-03 22:27 37.60564 -122.53450 7612 ft 265 kts 158°
2026-05-03 22:27 37.58843 -122.52541 8363 ft 270 kts 157°
2026-05-03 22:27 37.57114 -122.51626 9088 ft 273 kts 158°
2026-05-03 22:27 37.55350 -122.50709 9868 ft 276 kts 158°
2026-05-03 22:28 37.53547 -122.49783 10395 ft 287 kts 158°
2026-05-03 22:28 37.51635 -122.48810 10672 ft 306 kts 158°
2026-05-03 22:28 37.49653 -122.47610 10933 ft 325 kts 148°
2026-05-03 22:28 37.47871 -122.45734 11223 ft 343 kts 133°
2026-05-03 22:29 37.46306 -122.43418 11777 ft 351 kts 130°
2026-05-03 22:29 37.44784 -122.41025 12439 ft 355 kts 129°
2026-05-03 22:29 37.43230 -122.38574 13136 ft 358 kts 130°
2026-05-03 22:29 37.41663 -122.36116 13774 ft 362 kts 130°
2026-05-03 22:30 37.40088 -122.33656 14346 ft 366 kts 130°
2026-05-03 22:30 37.38480 -122.31151 14962 ft 368 kts 130°
2026-05-03 22:30 37.36861 -122.28635 15586 ft 371 kts 130°
2026-05-03 22:30 37.35223 -122.26096 16214 ft 373 kts 130°
2026-05-03 22:31 37.33577 -122.23548 16811 ft 376 kts 130°
2026-05-03 22:31 37.31936 -122.21010 17400 ft 379 kts 130°
2026-05-03 22:31 37.30262 -122.18422 17986 ft 381 kts 130°
2026-05-03 22:31 37.28579 -122.15825 18504 ft 385 kts 130°
2026-05-03 22:32 37.26880 -122.13204 19001 ft 387 kts 130°
2026-05-03 22:32 37.26238 -122.12213 19208 ft 388 kts 130°
2026-05-03 22:32 37.24545 -122.09602 19699 ft 390 kts 130°
2026-05-03 22:32 37.22824 -122.06950 20180 ft 392 kts 130°
2026-05-03 22:33 37.21096 -122.04290 20757 ft 392 kts 130°
2026-05-03 22:33 37.19371 -122.01635 21258 ft 394 kts 129°
2026-05-03 22:33 37.17634 -121.98966 21776 ft 396 kts 129°
2026-05-03 22:33 37.15884 -121.96274 22225 ft 398 kts 129°
2026-05-03 22:34 37.14147 -121.93606 22579 ft 403 kts 130°
2026-05-03 22:34 37.12355 -121.90861 22995 ft 406 kts 129°
2026-05-03 22:34 37.10555 -121.88107 23468 ft 408 kts 129°
2026-05-03 22:34 37.08746 -121.85339 23857 ft 410 kts 129°
2026-05-03 22:35 37.06951 -121.82596 24168 ft 414 kts 129°
2026-05-03 22:35 37.05117 -121.79794 24470 ft 417 kts 129°
2026-05-03 22:35 37.03278 -121.76985 24846 ft 418 kts 129°
2026-05-03 22:35 37.01425 -121.74158 25151 ft 421 kts 130°
2026-05-03 22:36 36.99542 -121.71288 25279 ft 429 kts 130°
2026-05-03 22:36 36.97662 -121.68428 25562 ft 431 kts 130°
2026-05-03 22:36 36.95749 -121.65522 25873 ft 434 kts 130°
2026-05-03 22:36 36.93818 -121.62587 26092 ft 438 kts 131°
2026-05-03 22:37 36.91883 -121.59648 26448 ft 438 kts 131°
2026-05-03 22:37 36.89936 -121.56692 26732 ft 441 kts 131°
2026-05-03 22:37 36.87972 -121.53714 26985 ft 443 kts 131°
2026-05-03 22:37 36.86022 -121.50761 27151 ft 448 kts 132°
2026-05-03 22:38 36.84016 -121.47727 27210 ft 455 kts 132°
2026-05-03 22:38 36.82058 -121.44767 27427 ft 458 kts 132°
2026-05-03 22:38 36.80018 -121.41685 27695 ft 460 kts 132°
2026-05-03 22:38 36.77980 -121.38608 28050 ft 459 kts 132°
2026-05-03 22:39 36.75940 -121.35530 28381 ft 459 kts 132°
2026-05-03 22:39 36.73930 -121.32502 28675 ft 460 kts 133°
2026-05-03 22:39 36.71880 -121.29416 28941 ft 462 kts 134°
2026-05-03 22:40 36.67728 -121.23180 29335 ft 467 kts 133°
2026-05-03 22:40 36.65680 -121.20104 29797 ft 464 kts 134°
2026-05-03 22:40 36.63616 -121.17007 30061 ft 465 kts 134°
2026-05-03 22:40 36.61541 -121.13898 30237 ft 466 kts 134°
2026-05-03 22:41 36.59454 -121.10770 30449 ft 467 kts 134°
2026-05-03 22:41 36.57396 -121.07690 30618 ft 468 kts 136°
2026-05-03 22:41 36.55288 -121.04547 30605 ft 475 kts 136°
2026-05-03 22:42 36.51046 -120.98228 30895 ft 479 kts 136°
2026-05-03 22:42 36.46780 -120.91857 30948 ft 478 kts 136°
2026-05-03 22:43 36.42524 -120.85485 30955 ft 478 kts 136°
2026-05-03 22:43 36.38307 -120.79165 30955 ft 478 kts 136°
2026-05-03 22:44 36.34768 -120.73865 30957 ft 478 kts 136°
2026-05-03 22:44 36.30530 -120.67538 30953 ft 478 kts 136°
2026-05-03 22:45 36.26346 -120.61307 30953 ft 480 kts 138°
2026-05-03 22:45 36.22020 -120.54905 30952 ft 483 kts 138°
2026-05-03 22:46 36.17707 -120.48589 30946 ft 483 kts 139°
2026-05-03 22:46 36.13331 -120.42238 30967 ft 486 kts 137°
2026-05-03 22:47 36.09032 -120.35759 30951 ft 491 kts 139°
2026-05-03 22:47 36.04661 -120.29225 30949 ft 492 kts 140°
2026-05-03 22:48 36.00259 -120.22744 30946 ft 491 kts 140°
2026-05-03 22:48 35.95876 -120.16319 30941 ft 493 kts 141°
2026-05-03 22:49 35.91422 -120.09806 30942 ft 496 kts 141°
2026-05-03 22:49 35.86957 -120.03274 30936 ft 497 kts 141°
2026-05-03 22:50 35.82501 -119.96809 30912 ft 496 kts 142°
2026-05-03 22:50 35.77973 -119.90358 30939 ft 499 kts 143°
2026-05-03 22:51 35.73447 -119.83938 30936 ft 499 kts 143°
2026-05-03 22:51 35.68884 -119.77482 30929 ft 499 kts 143°
2026-05-03 22:52 35.64311 -119.71013 30916 ft 500 kts 144°
2026-05-03 22:52 35.59758 -119.64583 30922 ft 501 kts 144°
2026-05-03 22:53 35.55177 -119.58122 30914 ft 501 kts 144°
2026-05-03 22:53 35.50624 -119.51712 30864 ft 501 kts 143°
2026-05-03 22:54 35.46029 -119.45257 30904 ft 500 kts 143°
2026-05-03 22:54 35.41433 -119.38812 30903 ft 501 kts 143°
2026-05-03 22:55 35.36866 -119.32419 30895 ft 500 kts 144°
2026-05-03 22:55 35.32284 -119.26020 30892 ft 500 kts 143°
2026-05-03 22:56 35.27680 -119.19601 30899 ft 500 kts 143°
2026-05-03 22:56 35.23078 -119.13196 30897 ft 501 kts 143°
2026-05-03 22:57 35.18489 -119.06821 30847 ft 500 kts 143°
2026-05-03 22:57 35.13883 -119.00436 30911 ft 500 kts 143°
2026-05-03 22:58 35.09278 -118.94061 30908 ft 500 kts 143°
2026-05-03 22:58 35.04699 -118.87733 30911 ft 499 kts 143°
2026-05-03 22:59 35.00079 -118.81368 30917 ft 500 kts 142°
2026-05-03 22:59 34.95472 -118.75032 30936 ft 502 kts 142°
2026-05-03 23:00 34.90829 -118.68656 30919 ft 502 kts 142°
2026-05-03 23:00 34.86215 -118.62236 30933 ft 502 kts 142°
2026-05-03 23:01 34.81586 -118.55928 30944 ft 502 kts 142°
2026-05-03 23:01 34.76923 -118.49598 30929 ft 502 kts 142°
2026-05-03 23:02 34.72263 -118.43258 30928 ft 502 kts 142°
2026-05-03 23:02 34.67635 -118.36959 30911 ft 501 kts 142°
2026-05-03 23:03 34.62984 -118.30623 30923 ft 502 kts 142°
2026-05-03 23:03 34.58326 -118.24300 30921 ft 502 kts 142°
2026-05-03 23:04 34.53687 -118.18031 30886 ft 499 kts 142°
2026-05-03 23:04 34.49044 -118.11714 30938 ft 504 kts 140°
2026-05-03 23:05 34.44472 -118.05286 30861 ft 509 kts 135°
2026-05-03 23:05 34.42543 -118.01638 30879 ft 521 kts 124°
2026-05-03 23:05 34.41137 -117.97532 30910 ft 529 kts 116°
2026-05-03 23:06 34.38935 -117.89013 30907 ft 534 kts 112°
2026-05-03 23:06 34.36970 -117.80314 30915 ft 535 kts 111°
2026-05-03 23:07 34.34997 -117.71653 30931 ft 537 kts 112°
2026-05-03 23:07 34.32981 -117.62933 30945 ft 537 kts 112°
2026-05-03 23:08 34.30945 -117.54202 30967 ft 540 kts 112°
2026-05-03 23:08 34.29912 -117.49831 31197 ft 539 kts 112°
2026-05-03 23:08 34.28894 -117.45528 31512 ft 536 kts 112°
2026-05-03 23:08 34.27866 -117.41192 31833 ft 535 kts 112°
2026-05-03 23:09 34.26831 -117.36846 31998 ft 536 kts 112°
2026-05-03 23:09 34.25803 -117.32549 32182 ft 536 kts 112°
2026-05-03 23:09 34.24758 -117.28187 32232 ft 540 kts 112°
2026-05-03 23:10 34.22660 -117.19408 32531 ft 543 kts 112°
2026-05-03 23:10 34.21637 -117.15111 32681 ft 542 kts 112°
2026-05-03 23:10 34.20590 -117.10729 32872 ft 541 kts 112°
2026-05-03 23:11 34.18492 -117.01990 32922 ft 540 kts 112°
2026-05-03 23:11 34.16398 -116.93307 32899 ft 540 kts 112°
2026-05-03 23:12 34.14294 -116.84632 32860 ft 540 kts 112°
2026-05-03 23:12 34.12165 -116.75879 32896 ft 544 kts 112°
2026-05-03 23:13 34.10026 -116.67110 32854 ft 547 kts 112°
2026-05-03 23:13 34.07875 -116.58299 32827 ft 545 kts 112°
2026-05-03 23:14 34.05733 -116.49577 32809 ft 543 kts 112°
2026-05-03 23:14 34.03584 -116.40856 32811 ft 541 kts 112°
2026-05-03 23:15 34.01427 -116.32142 32795 ft 542 kts 112°
2026-05-03 23:15 33.99256 -116.23402 32788 ft 548 kts 112°
2026-05-03 23:16 33.97083 -116.14662 32799 ft 544 kts 112°
2026-05-03 23:16 33.94903 -116.05911 32781 ft 544 kts 112°
2026-05-03 23:17 33.92711 -115.97159 32775 ft 544 kts 112°
2026-05-03 23:17 33.90536 -115.88503 32774 ft 541 kts 112°
2026-05-03 23:18 33.88346 -115.79818 32767 ft 543 kts 112°
2026-05-03 23:18 33.86142 -115.71117 32771 ft 546 kts 112°
2026-05-03 23:19 33.83920 -115.62359 32793 ft 546 kts 112°
2026-05-03 23:19 33.81704 -115.53647 32774 ft 542 kts 112°
2026-05-03 23:20 33.79493 -115.44984 32768 ft 541 kts 112°
2026-05-03 23:20 33.77286 -115.36375 32766 ft 541 kts 112°
2026-05-03 23:21 33.75047 -115.27680 32761 ft 544 kts 112°
2026-05-03 23:21 33.72817 -115.19037 32770 ft 543 kts 112°
2026-05-03 23:22 33.69453 -115.06045 32765 ft 543 kts 112°
2026-05-03 23:22 33.67198 -114.97371 32760 ft 542 kts 112°
2026-05-03 23:23 33.64957 -114.88776 32748 ft 541 kts 112°
2026-05-03 23:23 33.62686 -114.80116 32754 ft 542 kts 112°
2026-05-03 23:24 33.60412 -114.71462 32757 ft 544 kts 112°
2026-05-03 23:24 33.58145 -114.62842 32758 ft 544 kts 113°
2026-05-03 23:25 33.55857 -114.54177 32758 ft 545 kts 113°
2026-05-03 23:25 33.53575 -114.45490 32763 ft 545 kts 112°
2026-05-03 23:26 33.51469 -114.36784 32773 ft 546 kts 110°
2026-05-03 23:26 33.49412 -114.28041 32772 ft 544 kts 110°
2026-05-03 23:27 33.47345 -114.19305 32780 ft 544 kts 111°
2026-05-03 23:27 33.45268 -114.10625 32787 ft 544 kts 111°
2026-05-03 23:28 33.43178 -114.01948 32784 ft 543 kts 111°
2026-05-03 23:28 33.41429 -113.94714 32810 ft 542 kts 111°
2026-05-03 23:29 33.38980 -113.84617 32885 ft 542 kts 111°
2026-05-03 23:29 33.37210 -113.77355 32903 ft 542 kts 111°
2026-05-03 23:30 33.35101 -113.68729 32940 ft 543 kts 111°
2026-05-03 23:30 33.32973 -113.60037 32924 ft 542 kts 111°
2026-05-03 23:31 33.30855 -113.51411 32890 ft 542 kts 111°
2026-05-03 23:31 33.28758 -113.42910 32785 ft 543 kts 111°
2026-05-03 23:32 33.26618 -113.34257 32782 ft 541 kts 111°
2026-05-03 23:32 33.24486 -113.25664 32782 ft 541 kts 111°
2026-05-03 23:33 33.22342 -113.17058 32782 ft 544 kts 111°
2026-05-03 23:33 33.20171 -113.08371 32784 ft 544 kts 111°
2026-05-03 23:34 33.18014 -112.99760 32781 ft 543 kts 111°
2026-05-03 23:34 33.15835 -112.91091 32786 ft 543 kts 111°
2026-05-03 23:35 33.13667 -112.82497 32789 ft 543 kts 111°
2026-05-03 23:35 33.11517 -112.74005 32787 ft 542 kts 111°
2026-05-03 23:36 33.09327 -112.65382 32784 ft 542 kts 111°
2026-05-03 23:36 33.07151 -112.56797 32957 ft 545 kts 109°
2026-05-03 23:37 33.06389 -112.52338 33139 ft 549 kts 101°
2026-05-03 23:37 33.05832 -112.47816 33288 ft 550 kts 100°
2026-05-03 23:37 33.05321 -112.43302 33411 ft 551 kts 99°
2026-05-03 23:37 33.04823 -112.38778 33665 ft 550 kts 99°
2026-05-03 23:38 33.04335 -112.34317 33821 ft 550 kts 99°
2026-05-03 23:38 33.03839 -112.29787 33927 ft 551 kts 99°
2026-05-03 23:38 33.03341 -112.25252 34052 ft 551 kts 99°
2026-05-03 23:38 33.02843 -112.20718 34193 ft 551 kts 99°
2026-05-03 23:39 33.02344 -112.16195 34337 ft 550 kts 100°
2026-05-03 23:39 33.01842 -112.11679 34474 ft 550 kts 99°
2026-05-03 23:39 33.01343 -112.07172 34730 ft 547 kts 99°
2026-05-03 23:39 33.00849 -112.02724 34898 ft 546 kts 99°
2026-05-03 23:40 32.99840 -111.93704 35040 ft 548 kts 99°
2026-05-03 23:40 32.98822 -111.84676 35023 ft 554 kts 99°
2026-05-03 23:41 32.98305 -111.80101 35144 ft 554 kts 99°
2026-05-03 23:41 32.97794 -111.75601 35333 ft 552 kts 99°
2026-05-03 23:41 32.97280 -111.71079 35489 ft 551 kts 99°
2026-05-03 23:41 32.96836 -111.67193 35538 ft 552 kts 99°
2026-05-03 23:42 32.95791 -111.58100 35640 ft 554 kts 99°
2026-05-03 23:42 32.94748 -111.49069 35837 ft 552 kts 100°
2026-05-03 23:43 32.94222 -111.44538 35957 ft 551 kts 100°
2026-05-03 23:43 32.93695 -111.40017 36099 ft 551 kts 100°
2026-05-03 23:43 32.93167 -111.35501 36226 ft 550 kts 100°
2026-05-03 23:43 32.92639 -111.30994 36347 ft 549 kts 100°
2026-05-03 23:44 32.92116 -111.26547 36510 ft 548 kts 100°
2026-05-03 23:44 32.91584 -111.22043 36633 ft 546 kts 100°
2026-05-03 23:44 32.91052 -111.17545 36764 ft 545 kts 100°
2026-05-03 23:44 32.90527 -111.13128 36834 ft 545 kts 100°
2026-05-03 23:45 32.89455 -111.04143 36833 ft 548 kts 100°
2026-05-03 23:45 32.88375 -110.95146 36830 ft 551 kts 100°
2026-05-03 23:46 32.87283 -110.86111 36828 ft 554 kts 100°
2026-05-03 23:46 32.86176 -110.77001 36832 ft 557 kts 100°
2026-05-03 23:47 32.85055 -110.67832 36844 ft 560 kts 100°
2026-05-03 23:47 32.83925 -110.58650 36841 ft 564 kts 100°
2026-05-03 23:48 32.82777 -110.49385 36833 ft 566 kts 100°
2026-05-03 23:48 32.81628 -110.40154 36838 ft 564 kts 100°
2026-05-03 23:49 32.80475 -110.30963 36853 ft 563 kts 100°
2026-05-03 23:49 32.79314 -110.21752 36825 ft 563 kts 100°